Debrecen, Hungary

4:25 PM CEST on June 27, 2017 (GMT +0200)
Debrecen

Weather History for LHDC - November, 2012

Change the Weather History Date:

Tuesday, November 13, 2012

  Actual Average Record
Temperature  
Mean Temperature 48 °F -  
Max Temperature 52 °F 43 °F - ()
Min Temperature 46 °F 31 °F - ()
Degree Days  
Heating Degree Days 16    
Moisture  
Dew Point 44 °F    
Average Humidity 80    
Maximum Humidity 93    
Minimum Humidity 54    
Precipitation  
Precipitation 0.04 in 0.06 in - ()
Sea Level Pressure  
Sea Level Pressure 30.35 in    
Wind  
Wind Speed 9 mph ()    
Max Wind Speed 18 mph    
Max Gust Speed 29 mph    
Visibility 6.1 miles    
Events Rain    
T = Trace of Precipitation, MM = Missing Value Source: Averaged Metar Reports

Daily Weather History Graph

Daily Weather History Graph

Search for Another Location

Airport or City:

Trip Planner

Search our weather history database for the weather conditions in past years. The results will help you decide how hot, cold, wet, or windy it might be!

Date:

Astronomy

Nov. 13, 2012 Rise Set
Actual Time 6:35 AM CET 3:59 PM CET
Civil Twilight 6:02 AM CET 4:32 PM CET
Nautical Twilight 5:25 AM CET 5:10 PM CET
Astronomical Twilight 4:49 AM CET 5:46 PM CET
Moon 5:51 AM CET (11/13) 3:36 PM CET (11/13)
Length of Visible Light 10h 30m
Length of Day
9h 23m
Waning Crescent, 0% of the Moon is Illuminated
Nov 13
Waning Crescent
Nov 13
New
Nov 20
First Quarter
Nov 28
Full
Dec 6
Last Quarter

Hourly Weather History & Observations

Time (CET) Temp. Dew Point Humidity Pressure Visibility Wind Dir Wind Speed Gust Speed Precip Events Conditions
1:00 AM 49 °F 44 °F 78% 30.28 in - NE 6.7 mph - -  
5:15 AM 50.0 °F 46.4 °F 87% 30.27 in 6.2 mi NNE 9.2 mph - N/A   Overcast
5:45 AM 50.0 °F 46.4 °F 87% 30.30 in 6.2 mi North 8.1 mph - N/A   Overcast
6:00 AM - - N/A% - 6.2 mi NNE 9.2 mph - N/A   Scattered Clouds
6:15 AM 50.0 °F 46.4 °F 87% 30.30 in 6.2 mi North 8.1 mph - N/A   Overcast
6:45 AM 50.0 °F 46.4 °F 87% 30.30 in 6.2 mi NNE 9.2 mph - N/A   Overcast
7:00 AM 50 °F 46 °F 83% 30.31 in 7 mi NNE 8.9 mph - -   Partly Cloudy
7:00 AM 50.0 °F 46.4 °F 87% 30.30 in - NNE 9.2 mph - N/A   Unknown
7:15 AM 50.0 °F 46.4 °F 87% 30.30 in 6.2 mi North 9.2 mph - N/A Rain Light Rain
7:45 AM 50.0 °F 46.4 °F 87% 30.33 in 6.2 mi North 9.2 mph - N/A Rain Light Rain
8:15 AM 50.0 °F 46.4 °F 87% 30.33 in 6.2 mi North 9.2 mph - N/A Rain Light Rain
8:45 AM 50.0 °F 46.4 °F 87% 30.33 in 6.2 mi North 11.5 mph - N/A Rain Light Rain
9:00 AM - - N/A% - 6.2 mi North 11.5 mph - N/A   Scattered Clouds
9:15 AM 50.0 °F 46.4 °F 87% 30.36 in 5.0 mi North 12.7 mph - N/A Rain Light Rain
9:45 AM 48.2 °F 46.4 °F 93% 30.36 in 6.2 mi North 10.4 mph - N/A Rain Light Rain
10:15 AM 48.2 °F 46.4 °F 93% 30.36 in 6.2 mi North 10.4 mph - N/A Rain Light Rain
10:45 AM 48.2 °F 46.4 °F 93% 30.36 in 6.2 mi North 9.2 mph - N/A   Overcast
11:15 AM 48.2 °F 44.6 °F 87% 30.36 in 6.2 mi North 11.5 mph - N/A   Overcast
11:45 AM 50.0 °F 44.6 °F 82% 30.36 in 5.0 mi North 11.5 mph - N/A   Overcast
12:00 PM - - N/A% - 6.2 mi North 11.5 mph - N/A   Scattered Clouds
12:15 PM 50.0 °F 44.6 °F 82% 30.36 in 6.2 mi North 13.8 mph - N/A   Overcast
12:45 PM 50.0 °F 44.6 °F 82% 30.36 in 6.2 mi North 13.8 mph - N/A   Mostly Cloudy
1:00 PM 50 °F 44 °F 74% 30.37 in 6 mi North 13.4 mph - -   Partly Cloudy
1:15 PM 50.0 °F 42.8 °F 76% 30.36 in 6.2 mi North 12.7 mph - N/A   Mostly Cloudy
1:41 PM 51.8 °F 42.8 °F 71% 30.36 in - North 13.8 mph 27.6 mph N/A   Unknown
1:45 PM 51.8 °F 42.8 °F 71% 30.36 in - North 15.0 mph - N/A   Clear
2:15 PM 51.8 °F 42.8 °F 71% 30.39 in - North 15.0 mph 28.8 mph N/A   Clear
2:45 PM 51.8 °F 41.0 °F 67% 30.39 in - North 13.8 mph - N/A   Clear
3:15 PM 51.8 °F 41.0 °F 67% 30.39 in - North 16.1 mph - N/A   Clear
3:45 PM 50.0 °F 39.2 °F 66% 30.39 in - North 15.0 mph - N/A   Clear
4:15 PM 50.0 °F 37.4 °F 62% 30.39 in - North 13.8 mph - N/A   Clear
4:45 PM 48.2 °F 37.4 °F 66% 30.42 in - North 12.7 mph - N/A   Clear
5:00 PM - - N/A% - - North - - N/A   Unknown
7:00 PM 46 °F 35 °F 54% 30.43 in - North 17.9 mph - -